TimeMDT,TemperatureF,Dew PointF,Humidity,Sea Level PressureIn,VisibilityMPH,Wind Direction,Wind SpeedMPH,Gust SpeedMPH,PrecipitationIn,Events,Conditions,WindDirDegrees,DateUTC
12:15 AM,48.2,26.6,43,30.02,10.0,NE,9.2,-,N/A,,Clear,50,2013-10-31 06:15:00
12:35 AM,48.2,24.8,40,30.02,10.0,NE,9.2,-,N/A,,Clear,40,2013-10-31 06:35:00
12:55 AM,46.4,24.8,43,30.02,10.0,NNE,8.1,-,N/A,,Clear,20,2013-10-31 06:55:00
1:15 AM,46.4,24.8,43,30.04,10.0,NNE,9.2,-,N/A,,Clear,30,2013-10-31 07:15:00
1:35 AM,48.2,23.0,37,30.04,10.0,NNE,11.5,-,N/A,,Clear,20,2013-10-31 07:35:00
1:55 AM,48.2,24.8,40,30.04,10.0,NNE,12.7,-,N/A,,Clear,20,2013-10-31 07:55:00
2:15 AM,46.4,24.8,43,30.05,10.0,NNE,8.1,-,N/A,,Clear,30,2013-10-31 08:15:00
2:35 AM,44.6,24.8,46,30.06,10.0,NE,10.4,-,N/A,,Clear,40,2013-10-31 08:35:00
2:55 AM,44.6,24.8,46,30.05,10.0,NNE,12.7,-,N/A,,Clear,30,2013-10-31 08:55:00
3:15 AM,46.4,23.0,40,30.06,10.0,NNE,11.5,-,N/A,,Clear,20,2013-10-31 09:15:00
3:35 AM,44.6,24.8,46,30.06,10.0,NNE,8.1,-,N/A,,Clear,30,2013-10-31 09:35:00
3:55 AM,42.8,23.0,46,30.07,10.0,NE,9.2,-,N/A,,Clear,40,2013-10-31 09:55:00
4:15 AM,44.6,23.0,43,30.07,10.0,NNE,12.7,-,N/A,,Clear,30,2013-10-31 10:15:00
4:35 AM,44.6,23.0,43,30.07,10.0,NE,11.5,-,N/A,,Clear,40,2013-10-31 10:35:00
4:55 AM,42.8,23.0,46,30.08,10.0,NNE,10.4,-,N/A,,Clear,30,2013-10-31 10:55:00
5:15 AM,41.0,23.0,49,30.08,10.0,NE,10.4,-,N/A,,Clear,40,2013-10-31 11:15:00
5:35 AM,44.6,23.0,43,30.08,10.0,NNE,11.5,-,N/A,,Clear,20,2013-10-31 11:35:00
5:55 AM,46.4,23.0,40,30.09,10.0,NNE,13.8,-,N/A,,Clear,30,2013-10-31 11:55:00
6:15 AM,48.2,23.0,37,30.08,10.0,NNE,15.0,-,N/A,,Clear,30,2013-10-31 12:15:00
6:35 AM,46.4,23.0,40,30.09,10.0,NNE,13.8,-,N/A,,Clear,30,2013-10-31 12:35:00
6:55 AM,46.4,23.0,40,30.09,10.0,NNE,11.5,-,N/A,,Clear,30,2013-10-31 12:55:00
7:15 AM,44.6,23.0,43,30.10,10.0,NNE,11.5,-,N/A,,Clear,30,2013-10-31 13:15:00
7:35 AM,46.4,23.0,40,30.11,10.0,NNE,12.7,16.1,N/A,,Clear,30,2013-10-31 13:35:00
7:55 AM,48.2,23.0,37,30.12,10.0,NNE,12.7,-,N/A,,Clear,30,2013-10-31 13:55:00
8:15 AM,48.2,24.8,40,30.12,10.0,NNE,12.7,-,N/A,,Clear,30,2013-10-31 14:15:00
8:35 AM,51.8,23.0,33,30.13,10.0,NNE,13.8,-,N/A,,Clear,20,2013-10-31 14:35:00
8:55 AM,53.6,24.8,33,30.13,10.0,NNE,13.8,-,N/A,,Clear,20,2013-10-31 14:55:00
9:15 AM,53.6,23.0,30,30.15,10.0,NNE,13.8,-,N/A,,Clear,20,2013-10-31 15:15:00
9:35 AM,53.6,23.0,30,30.15,10.0,North,15.0,19.6,N/A,,Clear,360,2013-10-31 15:35:00
9:55 AM,55.4,23.0,29,30.14,10.0,North,15.0,-,N/A,,Clear,350,2013-10-31 15:55:00
10:15 AM,55.4,23.0,29,30.14,10.0,NNE,18.4,25.3,N/A,,Clear,20,2013-10-31 16:15:00
10:35 AM,57.2,23.0,27,30.14,10.0,North,19.6,-,N/A,,Clear,360,2013-10-31 16:35:00
10:55 AM,57.2,21.2,25,30.14,10.0,North,18.4,25.3,N/A,,Clear,360,2013-10-31 16:55:00
11:15 AM,57.2,21.2,25,30.14,10.0,North,17.3,23.0,N/A,,Clear,10,2013-10-31 17:15:00
11:35 AM,59.0,21.2,23,30.13,10.0,NNW,13.8,23.0,N/A,,Clear,340,2013-10-31 17:35:00
11:55 AM,59.0,19.4,22,30.13,10.0,North,16.1,19.6,N/A,,Clear,350,2013-10-31 17:55:00
12:15 PM,59.0,19.4,22,30.12,10.0,NNW,12.7,19.6,N/A,,Clear,340,2013-10-31 18:15:00
12:35 PM,59.0,19.4,22,30.11,10.0,North,10.4,-,N/A,,Clear,360,2013-10-31 18:35:00
12:55 PM,59.0,19.4,22,30.10,10.0,NW,10.4,21.9,N/A,,Clear,320,2013-10-31 18:55:00
1:15 PM,60.8,19.4,20,30.09,10.0,NNW,8.1,16.1,N/A,,Clear,340,2013-10-31 19:15:00
1:35 PM,60.8,19.4,20,30.08,10.0,North,10.4,16.1,N/A,,Clear,350,2013-10-31 19:35:00
1:55 PM,62.6,17.6,18,30.07,10.0,NNW,11.5,-,N/A,,Clear,340,2013-10-31 19:55:00
2:15 PM,62.6,19.4,19,30.06,10.0,North,10.4,-,N/A,,Clear,350,2013-10-31 20:15:00
2:35 PM,62.6,19.4,19,30.05,10.0,North,4.6,16.1,N/A,,Clear,350,2013-10-31 20:35:00
2:55 PM,62.6,19.4,19,30.04,10.0,North,3.5,-,N/A,,Clear,360,2013-10-31 20:55:00
3:15 PM,62.6,19.4,19,30.04,10.0,NW,6.9,-,N/A,,Clear,320,2013-10-31 21:15:00
3:35 PM,62.6,19.4,19,30.03,10.0,NNW,4.6,-,N/A,,Clear,340,2013-10-31 21:35:00
3:55 PM,62.6,19.4,19,30.03,10.0,Calm,Calm,-,N/A,,Clear,0,2013-10-31 21:55:00
4:15 PM,62.6,17.6,18,30.02,10.0,East,4.6,-,N/A,,Clear,80,2013-10-31 22:15:00
4:35 PM,62.6,19.4,19,30.03,10.0,WNW,4.6,-,N/A,,Clear,300,2013-10-31 22:35:00
4:55 PM,62.6,19.4,19,30.03,10.0,Calm,Calm,-,N/A,,Clear,0,2013-10-31 22:55:00
5:15 PM,62.6,19.4,19,30.03,10.0,ENE,3.5,-,N/A,,Clear,70,2013-10-31 23:15:00
5:35 PM,62.6,19.4,19,30.02,10.0,ENE,4.6,-,N/A,,Clear,70,2013-10-31 23:35:00
5:55 PM,60.8,19.4,20,30.01,10.0,Calm,Calm,-,N/A,,Clear,0,2013-10-31 23:55:00
6:15 PM,59.0,19.4,22,30.01,10.0,ENE,3.5,-,N/A,,Clear,60,2013-11-01 00:15:00
6:35 PM,57.2,19.4,23,30.01,10.0,Calm,Calm,-,N/A,,Clear,0,2013-11-01 00:35:00
6:55 PM,55.4,19.4,25,30.01,10.0,Calm,Calm,-,N/A,,Clear,0,2013-11-01 00:55:00
7:15 PM,53.6,17.6,24,30.01,10.0,ENE,5.8,-,N/A,,Clear,60,2013-11-01 01:15:00
7:35 PM,50.0,19.4,30,30.01,10.0,East,5.8,-,N/A,,Clear,80,2013-11-01 01:35:00
7:55 PM,51.8,17.6,26,30.01,10.0,East,3.5,-,N/A,,Clear,100,2013-11-01 01:55:00
8:15 PM,51.8,17.6,26,30.01,10.0,East,4.6,-,N/A,,Clear,80,2013-11-01 02:15:00
8:35 PM,48.2,17.6,30,30.02,10.0,East,3.5,-,N/A,,Clear,100,2013-11-01 02:35:00
8:55 PM,46.4,19.4,34,30.02,10.0,South,3.5,-,N/A,,Clear,170,2013-11-01 02:55:00
9:15 PM,46.4,17.6,32,30.02,10.0,Calm,Calm,-,N/A,,Clear,0,2013-11-01 03:15:00
9:35 PM,50.0,17.6,28,30.02,10.0,Calm,Calm,-,N/A,,Clear,0,2013-11-01 03:35:00
9:55 PM,44.6,17.6,34,30.03,10.0,NNE,4.6,-,N/A,,Clear,20,2013-11-01 03:55:00
10:15 PM,50.0,17.6,28,30.04,10.0,North,3.5,-,N/A,,Clear,360,2013-11-01 04:15:00
10:35 PM,46.4,19.4,34,30.04,10.0,NNE,3.5,-,N/A,,Clear,30,2013-11-01 04:35:00
10:55 PM,44.6,19.4,37,30.04,10.0,NE,9.2,-,N/A,,Clear,40,2013-11-01 04:55:00
11:15 PM,41.0,19.4,42,30.05,10.0,Calm,Calm,-,N/A,,Clear,0,2013-11-01 05:15:00
11:35 PM,41.0,17.6,39,30.05,10.0,Calm,Calm,-,N/A,,Clear,0,2013-11-01 05:35:00
11:55 PM,44.6,17.6,34,30.05,10.0,Calm,Calm,-,N/A,,Clear,0,2013-11-01 05:55:00